Year,Month,Day,Hour,Minute,Value (Times are PST for temperature in C)
2016,09,29,00,00,9.40
2016,09,29,00,01,9.40
2016,09,29,00,02,9.40
2016,09,29,00,03,9.40
2016,09,29,00,04,9.40
2016,09,29,00,05,9.40
2016,09,29,00,06,9.30
2016,09,29,00,07,9.30
2016,09,29,00,08,9.30
2016,09,29,00,09,9.30
2016,09,29,00,10,9.20
2016,09,29,00,11,9.20
2016,09,29,00,12,9.20
2016,09,29,00,13,9.20
2016,09,29,00,14,9.20
2016,09,29,00,15,9.20
2016,09,29,00,16,9.20
2016,09,29,00,17,9.20
2016,09,29,00,18,9.20
2016,09,29,00,19,9.30
2016,09,29,00,20,9.30
2016,09,29,00,21,9.30
2016,09,29,00,22,9.30
2016,09,29,00,23,9.30
2016,09,29,00,24,9.20
2016,09,29,00,25,9.20
2016,09,29,00,26,9.20
2016,09,29,00,27,9.20
2016,09,29,00,28,9.20
2016,09,29,00,29,9.20
2016,09,29,00,30,9.20
2016,09,29,00,31,9.20
2016,09,29,00,32,9.20
2016,09,29,00,33,9.20
2016,09,29,00,34,9.20
2016,09,29,00,35,9.20
2016,09,29,00,36,9.20
2016,09,29,00,37,9.20
2016,09,29,00,38,9.20
2016,09,29,00,39,9.20
2016,09,29,00,40,9.10
2016,09,29,00,41,9.10
2016,09,29,00,42,9.10
2016,09,29,00,43,9.10
2016,09,29,00,44,9.00
2016,09,29,00,45,9.00
2016,09,29,00,46,9.00
2016,09,29,00,47,9.00
2016,09,29,00,48,9.00
2016,09,29,00,49,8.90
2016,09,29,00,50,8.90
2016,09,29,00,51,8.90
2016,09,29,00,52,8.90
2016,09,29,00,53,8.90
2016,09,29,00,54,8.90
2016,09,29,00,55,8.90
2016,09,29,00,56,8.90
2016,09,29,00,57,8.90
2016,09,29,00,58,8.80
2016,09,29,00,59,8.80
2016,09,29,01,00,8.80
2016,09,29,01,01,8.70
2016,09,29,01,02,8.70
2016,09,29,01,03,8.70
2016,09,29,01,04,8.70
2016,09,29,01,05,8.70
2016,09,29,01,06,8.70
2016,09,29,01,07,8.70
2016,09,29,01,08,8.70
2016,09,29,01,09,8.70
2016,09,29,01,10,8.70
2016,09,29,01,11,8.70
2016,09,29,01,12,8.70
2016,09,29,01,13,8.70
2016,09,29,01,14,8.70
2016,09,29,01,15,8.70
2016,09,29,01,16,8.70
2016,09,29,01,17,8.60
2016,09,29,01,18,8.60
2016,09,29,01,19,8.60
2016,09,29,01,20,8.60
2016,09,29,01,21,8.60
2016,09,29,01,22,8.60
2016,09,29,01,23,8.60
2016,09,29,01,24,8.60
2016,09,29,01,25,8.60
2016,09,29,01,26,8.60
2016,09,29,01,27,8.60
2016,09,29,01,28,8.50
2016,09,29,01,29,8.50
2016,09,29,01,30,8.50
2016,09,29,01,31,8.50
2016,09,29,01,32,8.60
2016,09,29,01,33,8.60
2016,09,29,01,34,8.60
2016,09,29,01,35,8.70
2016,09,29,01,36,8.80
2016,09,29,01,37,8.80
2016,09,29,01,38,8.90
2016,09,29,01,39,8.90
2016,09,29,01,40,8.90
2016,09,29,01,41,8.90
2016,09,29,01,42,8.80
2016,09,29,01,43,8.80
2016,09,29,01,44,8.80
2016,09,29,01,45,8.70
2016,09,29,01,46,8.70
2016,09,29,01,47,8.70
2016,09,29,01,48,8.70
2016,09,29,01,49,8.70
2016,09,29,01,50,8.70
2016,09,29,01,51,8.70
2016,09,29,01,52,8.70
2016,09,29,01,53,8.70
2016,09,29,01,54,8.70
2016,09,29,01,55,8.70
2016,09,29,01,56,8.70
2016,09,29,01,57,8.60
2016,09,29,01,58,8.60
2016,09,29,01,59,8.60
2016,09,29,02,00,8.60
2016,09,29,02,01,8.50
2016,09,29,02,02,8.50
2016,09,29,02,03,8.50
2016,09,29,02,04,8.50
2016,09,29,02,05,8.50
2016,09,29,02,06,8.50
2016,09,29,02,07,8.50
2016,09,29,02,08,8.50
2016,09,29,02,09,8.50
2016,09,29,02,10,8.50
2016,09,29,02,11,8.40
2016,09,29,02,12,8.40
2016,09,29,02,13,8.40
2016,09,29,02,14,8.30
2016,09,29,02,15,8.30
2016,09,29,02,16,8.30
2016,09,29,02,17,8.20
2016,09,29,02,18,8.20
2016,09,29,02,19,8.20
2016,09,29,02,20,8.20
2016,09,29,02,21,8.20
2016,09,29,02,22,8.20
2016,09,29,02,23,8.20
2016,09,29,02,24,8.30
2016,09,29,02,25,8.30
2016,09,29,02,26,8.40
2016,09,29,02,27,8.40
2016,09,29,02,28,8.40
2016,09,29,02,29,8.50
2016,09,29,02,30,8.50
2016,09,29,02,31,8.50
2016,09,29,02,32,8.50
2016,09,29,02,33,8.50
2016,09,29,02,34,8.50
2016,09,29,02,35,8.50
2016,09,29,02,36,8.40
2016,09,29,02,37,8.40
2016,09,29,02,38,8.40
2016,09,29,02,39,8.40
2016,09,29,02,40,8.40
2016,09,29,02,41,8.40
2016,09,29,02,42,8.40
2016,09,29,02,43,8.40
2016,09,29,02,44,8.40
2016,09,29,02,45,8.40
2016,09,29,02,46,8.40
2016,09,29,02,47,8.30
2016,09,29,02,48,8.30
2016,09,29,02,49,8.30
2016,09,29,02,50,8.30
2016,09,29,02,51,8.30
2016,09,29,02,52,8.20
2016,09,29,02,53,8.20
2016,09,29,02,54,8.20
2016,09,29,02,55,8.30
2016,09,29,02,56,8.30
2016,09,29,02,57,8.30
2016,09,29,02,58,8.30
2016,09,29,02,59,8.30
2016,09,29,03,00,8.40
2016,09,29,03,01,8.40
2016,09,29,03,02,8.40
2016,09,29,03,03,8.40
2016,09,29,03,04,8.40
2016,09,29,03,05,8.40
2016,09,29,03,06,8.40
2016,09,29,03,07,8.40
2016,09,29,03,08,8.30
2016,09,29,03,09,8.30
2016,09,29,03,10,8.30
2016,09,29,03,11,8.20
2016,09,29,03,12,8.20
2016,09,29,03,13,8.20
2016,09,29,03,14,8.20
2016,09,29,03,15,8.20
2016,09,29,03,16,8.20
2016,09,29,03,17,8.20
2016,09,29,03,18,8.20
2016,09,29,03,19,8.20
2016,09,29,03,20,8.20
2016,09,29,03,21,8.20
2016,09,29,03,22,8.20
2016,09,29,03,23,8.20
2016,09,29,03,24,8.20
2016,09,29,03,25,8.30
2016,09,29,03,26,8.30
2016,09,29,03,27,8.30
2016,09,29,03,28,8.30
2016,09,29,03,29,8.20
2016,09,29,03,30,8.20
2016,09,29,03,31,8.20
2016,09,29,03,32,8.20
2016,09,29,03,33,8.20
2016,09,29,03,34,8.20
2016,09,29,03,35,8.20
2016,09,29,03,36,8.20
2016,09,29,03,37,8.20
2016,09,29,03,38,8.20
2016,09,29,03,39,8.20
2016,09,29,03,40,8.20
2016,09,29,03,41,8.20
2016,09,29,03,42,8.20
2016,09,29,03,43,8.20
2016,09,29,03,44,8.20
2016,09,29,03,45,8.20
2016,09,29,03,46,8.20
2016,09,29,03,47,8.20
2016,09,29,03,48,8.20
2016,09,29,03,49,8.20
2016,09,29,03,50,8.20
2016,09,29,03,51,8.20
2016,09,29,03,52,8.20
2016,09,29,03,53,8.20
2016,09,29,03,54,8.20
2016,09,29,03,55,8.20
2016,09,29,03,56,8.20
2016,09,29,03,57,8.20
2016,09,29,03,58,8.10
2016,09,29,03,59,8.10
2016,09,29,04,00,8.10
2016,09,29,04,01,8.10
2016,09,29,04,02,8.10
2016,09,29,04,03,8.10
2016,09,29,04,04,8.10
2016,09,29,04,05,8.10
2016,09,29,04,06,8.10
2016,09,29,04,07,8.10
2016,09,29,04,08,8.10
2016,09,29,04,09,8.10
2016,09,29,04,10,8.10
2016,09,29,04,11,8.10
2016,09,29,04,12,8.10
2016,09,29,04,13,8.10
2016,09,29,04,14,8.00
2016,09,29,04,15,8.00
2016,09,29,04,16,8.00
2016,09,29,04,17,7.90
2016,09,29,04,18,7.90
2016,09,29,04,19,7.90
2016,09,29,04,20,7.90
2016,09,29,04,21,7.90
2016,09,29,04,22,7.90
2016,09,29,04,23,7.90
2016,09,29,04,24,7.90
2016,09,29,04,25,7.90
2016,09,29,04,26,7.90
2016,09,29,04,27,7.80
2016,09,29,04,28,7.80
2016,09,29,04,29,7.80
2016,09,29,04,30,7.80
2016,09,29,04,31,7.80
2016,09,29,04,32,7.80
2016,09,29,04,33,7.80
2016,09,29,04,34,7.80
2016,09,29,04,35,7.80
2016,09,29,04,36,7.80
2016,09,29,04,37,7.80
2016,09,29,04,38,7.80
2016,09,29,04,39,7.80
2016,09,29,04,40,7.80
2016,09,29,04,41,7.70
2016,09,29,04,42,7.70
2016,09,29,04,43,7.70
2016,09,29,04,44,7.70
2016,09,29,04,45,7.70
2016,09,29,04,46,7.70
2016,09,29,04,47,7.70
2016,09,29,04,48,7.70
2016,09,29,04,49,7.70
2016,09,29,04,50,7.70
2016,09,29,04,51,7.70
2016,09,29,04,52,7.70
2016,09,29,04,53,7.70
2016,09,29,04,54,7.70
2016,09,29,04,55,7.70
2016,09,29,04,56,7.70
2016,09,29,04,57,7.80
2016,09,29,04,58,7.80
2016,09,29,04,59,7.80
2016,09,29,05,00,7.80
2016,09,29,05,01,7.80
2016,09,29,05,02,7.80
2016,09,29,05,03,7.80
2016,09,29,05,04,7.80
2016,09,29,05,05,7.80
2016,09,29,05,06,7.80
2016,09,29,05,07,7.80
2016,09,29,05,08,7.80
2016,09,29,05,09,7.80
2016,09,29,05,10,7.80
2016,09,29,05,11,7.80
2016,09,29,05,12,7.80
2016,09,29,05,13,7.70
2016,09,29,05,14,7.70
2016,09,29,05,15,7.70
2016,09,29,05,16,7.60
2016,09,29,05,17,7.60
2016,09,29,05,18,7.60
2016,09,29,05,19,7.60
2016,09,29,05,20,7.60
2016,09,29,05,21,7.60
2016,09,29,05,22,7.60
2016,09,29,05,23,7.60
2016,09,29,05,24,7.50
2016,09,29,05,25,7.50
2016,09,29,05,26,7.50
2016,09,29,05,27,7.50
2016,09,29,05,28,7.50
2016,09,29,05,29,7.40
2016,09,29,05,30,7.40
2016,09,29,05,31,7.40
2016,09,29,05,32,7.40
2016,09,29,05,33,7.40
2016,09,29,05,34,7.40
2016,09,29,05,35,7.40
2016,09,29,05,36,7.40
2016,09,29,05,37,7.40
2016,09,29,05,38,7.40
2016,09,29,05,39,7.50
2016,09,29,05,40,7.50
2016,09,29,05,41,7.50
2016,09,29,05,42,7.50
2016,09,29,05,43,7.50
2016,09,29,05,44,7.50
2016,09,29,05,45,7.40
2016,09,29,05,46,7.40
2016,09,29,05,47,7.40
2016,09,29,05,48,7.40
2016,09,29,05,49,7.40
2016,09,29,05,50,7.40
2016,09,29,05,51,7.40
2016,09,29,05,52,7.40
2016,09,29,05,53,7.40
2016,09,29,05,54,7.30
2016,09,29,05,55,7.30
2016,09,29,05,56,7.30
2016,09,29,05,57,7.30
2016,09,29,05,58,7.30
2016,09,29,05,59,7.30
2016,09,29,06,00,7.30
2016,09,29,06,01,7.30
2016,09,29,06,02,7.30
2016,09,29,06,03,7.30
2016,09,29,06,04,7.30
2016,09,29,06,05,7.30
2016,09,29,06,06,7.30
2016,09,29,06,07,7.30
2016,09,29,06,08,7.30
2016,09,29,06,09,7.30
2016,09,29,06,10,7.30
2016,09,29,06,11,7.30
2016,09,29,06,12,7.30
2016,09,29,06,13,7.30
2016,09,29,06,14,7.30
2016,09,29,06,15,7.30
2016,09,29,06,16,7.30
2016,09,29,06,17,7.30
2016,09,29,06,18,7.30
2016,09,29,06,19,7.30
2016,09,29,06,20,7.30
2016,09,29,06,21,7.30
2016,09,29,06,22,7.30
2016,09,29,06,23,7.30
2016,09,29,06,24,7.30
2016,09,29,06,25,7.30
2016,09,29,06,26,7.30
2016,09,29,06,27,7.30
2016,09,29,06,28,7.30
2016,09,29,06,29,7.30
2016,09,29,06,30,7.30
2016,09,29,06,31,7.30
2016,09,29,06,32,7.30
2016,09,29,06,33,7.30
2016,09,29,06,34,7.30
2016,09,29,06,35,7.30
2016,09,29,06,36,7.30
2016,09,29,06,37,7.30
2016,09,29,06,38,7.30
2016,09,29,06,39,7.30
2016,09,29,06,40,7.30
2016,09,29,06,41,7.30
2016,09,29,06,42,7.30
2016,09,29,06,43,7.30
2016,09,29,06,44,7.30
2016,09,29,06,45,7.30
2016,09,29,06,46,7.30
2016,09,29,06,47,7.30
2016,09,29,06,48,7.30
2016,09,29,06,49,7.30
2016,09,29,06,50,7.30
2016,09,29,06,51,7.30
2016,09,29,06,52,7.30
2016,09,29,06,53,7.30
2016,09,29,06,54,7.30
2016,09,29,06,55,7.30
2016,09,29,06,56,7.20
2016,09,29,06,57,7.20
2016,09,29,06,58,7.20
2016,09,29,06,59,7.20
2016,09,29,07,00,7.20
2016,09,29,07,01,7.20
2016,09,29,07,02,7.20
2016,09,29,07,03,7.20
2016,09,29,07,04,7.20
2016,09,29,07,05,7.30
2016,09,29,07,06,7.30
2016,09,29,07,07,7.30
2016,09,29,07,08,7.30
2016,09,29,07,09,7.30
2016,09,29,07,10,7.30
2016,09,29,07,11,7.30
2016,09,29,07,12,7.30
2016,09,29,07,13,7.30
2016,09,29,07,14,7.20
2016,09,29,07,15,7.20
2016,09,29,07,16,7.20
2016,09,29,07,17,7.20
2016,09,29,07,18,7.20
2016,09,29,07,19,7.20
2016,09,29,07,20,7.20
2016,09,29,07,21,7.20
2016,09,29,07,22,7.20
2016,09,29,07,23,7.20
2016,09,29,07,24,7.20
2016,09,29,07,25,7.20
2016,09,29,07,26,7.20
2016,09,29,07,27,7.10
2016,09,29,07,28,7.10
2016,09,29,07,29,7.10
2016,09,29,07,30,7.00
2016,09,29,07,31,7.00
2016,09,29,07,32,7.00
2016,09,29,07,33,7.00
2016,09,29,07,34,7.00
2016,09,29,07,35,7.00
2016,09,29,07,36,7.00
2016,09,29,07,37,7.10
2016,09,29,07,38,7.10
2016,09,29,07,39,7.20
2016,09,29,07,40,7.30
2016,09,29,07,41,7.30
2016,09,29,07,42,7.30
2016,09,29,07,43,7.40
2016,09,29,07,44,7.40
2016,09,29,07,45,7.40
2016,09,29,07,46,7.40
2016,09,29,07,47,7.40
2016,09,29,07,48,7.40
2016,09,29,07,49,7.40
2016,09,29,07,50,7.40
2016,09,29,07,51,7.40
2016,09,29,07,52,7.30
2016,09,29,07,53,7.30
2016,09,29,07,54,7.30
2016,09,29,07,55,7.30
2016,09,29,07,56,7.30
2016,09,29,07,57,7.40
2016,09,29,07,58,7.50
2016,09,29,07,59,7.50
2016,09,29,08,00,7.50
2016,09,29,08,01,7.60
2016,09,29,08,02,7.60
2016,09,29,08,03,7.60
2016,09,29,08,04,7.60
2016,09,29,08,05,7.70
2016,09,29,08,06,7.70
2016,09,29,08,07,7.80
2016,09,29,08,08,7.80
2016,09,29,08,09,7.80
2016,09,29,08,10,7.90
2016,09,29,08,11,7.90
2016,09,29,08,12,7.90
2016,09,29,08,13,8.00
2016,09,29,08,14,8.00
2016,09,29,08,15,8.00
2016,09,29,08,16,8.10
2016,09,29,08,17,8.10
2016,09,29,08,18,8.10
2016,09,29,08,19,8.10
2016,09,29,08,20,8.20
2016,09,29,08,21,8.20
2016,09,29,08,22,8.20
2016,09,29,08,23,8.20
2016,09,29,08,24,8.20
2016,09,29,08,25,8.20
2016,09,29,08,26,8.20
2016,09,29,08,27,8.30
2016,09,29,08,28,8.30
2016,09,29,08,29,8.30
2016,09,29,08,30,8.30
2016,09,29,08,31,8.40
2016,09,29,08,32,8.40
2016,09,29,08,33,8.40
2016,09,29,08,34,8.50
2016,09,29,08,35,8.50
2016,09,29,08,36,8.60
2016,09,29,08,37,8.60
2016,09,29,08,38,8.60
2016,09,29,08,39,8.60
2016,09,29,08,40,8.70
2016,09,29,08,41,8.70
2016,09,29,08,42,8.70
2016,09,29,08,43,8.70
2016,09,29,08,44,8.70
2016,09,29,08,45,8.80
2016,09,29,08,46,8.80
2016,09,29,08,47,8.80
2016,09,29,08,48,8.90
2016,09,29,08,49,8.90
2016,09,29,08,50,8.90
2016,09,29,08,51,8.90
2016,09,29,08,52,9.00
2016,09,29,08,53,9.00
2016,09,29,08,54,9.00
2016,09,29,08,55,9.00
2016,09,29,08,56,9.00
2016,09,29,08,57,9.10
2016,09,29,08,58,9.10
2016,09,29,08,59,9.10
2016,09,29,09,00,9.20
2016,09,29,09,01,9.20
2016,09,29,09,02,9.20
2016,09,29,09,03,9.20
2016,09,29,09,04,9.30
2016,09,29,09,05,9.40
2016,09,29,09,06,9.40
2016,09,29,09,07,9.50
2016,09,29,09,08,9.60
2016,09,29,09,09,9.60
2016,09,29,09,10,9.70
2016,09,29,09,11,9.70
2016,09,29,09,12,9.80
2016,09,29,09,13,9.80
2016,09,29,09,14,9.90
2016,09,29,09,15,9.90
2016,09,29,09,16,9.90
2016,09,29,09,17,10.00
2016,09,29,09,18,10.10
2016,09,29,09,19,10.10
2016,09,29,09,20,10.20
2016,09,29,09,21,10.30
2016,09,29,09,22,10.30
2016,09,29,09,23,10.40
2016,09,29,09,24,10.40
2016,09,29,09,25,10.40
2016,09,29,09,26,10.50
2016,09,29,09,27,10.60
2016,09,29,09,28,10.50
2016,09,29,09,29,10.40
2016,09,29,09,30,10.40
2016,09,29,09,31,10.40
2016,09,29,09,32,10.40
2016,09,29,09,33,10.40
2016,09,29,09,34,10.40
2016,09,29,09,35,10.40
2016,09,29,09,36,10.40
2016,09,29,09,37,10.40
2016,09,29,09,38,10.40
2016,09,29,09,39,10.40
2016,09,29,09,40,10.40
2016,09,29,09,41,10.40
2016,09,29,09,42,10.40
2016,09,29,09,43,10.40
2016,09,29,09,44,10.30
2016,09,29,09,45,10.30
2016,09,29,09,46,10.20
2016,09,29,09,47,10.20
2016,09,29,09,48,10.10
2016,09,29,09,49,10.10
2016,09,29,09,50,10.10
2016,09,29,09,51,10.10
2016,09,29,09,52,10.00
2016,09,29,09,53,9.90
2016,09,29,09,54,9.90
2016,09,29,09,55,9.90
2016,09,29,09,56,9.90
2016,09,29,09,57,9.90
2016,09,29,09,58,9.90
2016,09,29,09,59,9.90
2016,09,29,10,00,9.90
2016,09,29,10,01,9.90
2016,09,29,10,02,9.90
2016,09,29,10,03,10.00
2016,09,29,10,04,10.10
2016,09,29,10,05,10.10
2016,09,29,10,06,10.10
2016,09,29,10,07,10.20
2016,09,29,10,08,10.20
2016,09,29,10,09,10.30
2016,09,29,10,10,10.30
2016,09,29,10,11,10.30
2016,09,29,10,12,10.30
2016,09,29,10,13,10.40
2016,09,29,10,14,10.40
2016,09,29,10,15,10.40
2016,09,29,10,16,10.40
2016,09,29,10,17,10.30
2016,09,29,10,18,10.30
2016,09,29,10,19,10.40
2016,09,29,10,20,10.40
2016,09,29,10,21,10.40
2016,09,29,10,22,10.40
2016,09,29,10,23,10.40
2016,09,29,10,24,10.40
2016,09,29,10,25,10.40
2016,09,29,10,26,10.40
2016,09,29,10,27,10.60
2016,09,29,10,28,10.60
2016,09,29,10,29,10.60
2016,09,29,10,30,10.70
2016,09,29,10,31,10.70
2016,09,29,10,32,10.80
2016,09,29,10,33,10.90
2016,09,29,10,34,10.90
2016,09,29,10,35,10.90
2016,09,29,10,36,10.90
2016,09,29,10,37,10.90
2016,09,29,10,38,10.90
2016,09,29,10,39,10.90
2016,09,29,10,40,10.90
2016,09,29,10,41,10.90
2016,09,29,10,42,10.90
2016,09,29,10,43,10.80
2016,09,29,10,44,10.80
2016,09,29,10,45,10.80
2016,09,29,10,46,10.80
2016,09,29,10,47,10.80
2016,09,29,10,48,10.80
2016,09,29,10,49,10.90
2016,09,29,10,50,10.90
2016,09,29,10,51,10.90
2016,09,29,10,52,10.90
2016,09,29,10,53,10.90
2016,09,29,10,54,10.90
2016,09,29,10,55,10.90
2016,09,29,10,56,10.90
2016,09,29,10,57,11.10
2016,09,29,10,58,11.10
2016,09,29,10,59,11.10
2016,09,29,11,00,11.10
2016,09,29,11,01,11.20
2016,09,29,11,02,11.20
2016,09,29,11,03,11.20
2016,09,29,11,04,11.30
2016,09,29,11,05,11.40
2016,09,29,11,06,11.40
2016,09,29,11,07,11.30
2016,09,29,11,08,11.20
2016,09,29,11,09,11.10
2016,09,29,11,10,11.10
2016,09,29,11,11,11.10
2016,09,29,11,12,11.10
2016,09,29,11,13,11.10
2016,09,29,11,14,11.10
2016,09,29,11,15,11.10
2016,09,29,11,16,11.10
2016,09,29,11,17,11.10
2016,09,29,11,18,11.10
2016,09,29,11,19,11.10
2016,09,29,11,20,11.20
2016,09,29,11,21,11.20
2016,09,29,11,22,11.30
2016,09,29,11,23,11.30
2016,09,29,11,24,11.30
2016,09,29,11,25,11.30
2016,09,29,11,26,11.30
2016,09,29,11,27,11.40
2016,09,29,11,28,11.40
2016,09,29,11,29,11.40
2016,09,29,11,30,11.40
2016,09,29,11,31,11.40
2016,09,29,11,32,11.40
2016,09,29,11,33,11.40
2016,09,29,11,34,11.50
2016,09,29,11,35,11.60
2016,09,29,11,36,11.60
2016,09,29,11,37,11.60
2016,09,29,11,38,11.60
2016,09,29,11,39,11.40
2016,09,29,11,40,11.40
2016,09,29,11,41,11.40
2016,09,29,11,42,11.50
2016,09,29,11,43,11.60
2016,09,29,11,44,11.60
2016,09,29,11,45,11.60
2016,09,29,11,46,11.40
2016,09,29,11,47,11.40
2016,09,29,11,48,11.50
2016,09,29,11,49,11.60
2016,09,29,11,50,11.60
2016,09,29,11,51,11.60
2016,09,29,11,52,11.60
2016,09,29,11,53,11.60
2016,09,29,11,54,11.40
2016,09,29,11,55,11.40
2016,09,29,11,56,11.40
2016,09,29,11,57,11.40
2016,09,29,11,58,11.40
2016,09,29,11,59,11.40
2016,09,29,12,00,11.40
2016,09,29,12,01,11.30
2016,09,29,12,02,11.40
2016,09,29,12,03,11.50
2016,09,29,12,04,11.60
2016,09,29,12,05,11.60
2016,09,29,12,06,11.60
2016,09,29,12,07,11.60
2016,09,29,12,08,11.50
2016,09,29,12,09,11.40
2016,09,29,12,10,11.40
2016,09,29,12,11,11.30
2016,09,29,12,12,11.30
2016,09,29,12,13,11.30
2016,09,29,12,14,11.20
2016,09,29,12,15,11.30
2016,09,29,12,16,11.30
2016,09,29,12,17,11.30
2016,09,29,12,18,11.30
2016,09,29,12,19,11.40
2016,09,29,12,20,11.50
2016,09,29,12,21,11.60
2016,09,29,12,22,11.60
2016,09,29,12,23,11.70
2016,09,29,12,24,11.80
2016,09,29,12,25,11.80
2016,09,29,12,26,11.90
2016,09,29,12,27,11.90
2016,09,29,12,28,12.00
2016,09,29,12,29,12.00
2016,09,29,12,30,12.10
2016,09,29,12,31,12.20
2016,09,29,12,32,12.10
2016,09,29,12,33,12.10
2016,09,29,12,34,12.00
2016,09,29,12,35,11.80
2016,09,29,12,36,11.80
2016,09,29,12,37,11.80
2016,09,29,12,38,11.80
2016,09,29,12,39,11.80
2016,09,29,12,40,11.80
2016,09,29,12,41,11.80
2016,09,29,12,42,11.70
2016,09,29,12,43,11.60
2016,09,29,12,44,11.60
2016,09,29,12,45,11.60
2016,09,29,12,46,11.60
2016,09,29,12,47,11.60
2016,09,29,12,48,11.50
2016,09,29,12,49,11.40
2016,09,29,12,50,11.40
2016,09,29,12,51,11.40
2016,09,29,12,52,11.40
2016,09,29,12,53,11.50
2016,09,29,12,54,11.60
2016,09,29,12,55,11.60
2016,09,29,12,56,11.60
2016,09,29,12,57,11.70
2016,09,29,12,58,11.70
2016,09,29,12,59,11.70
2016,09,29,13,00,11.80
2016,09,29,13,01,11.80
2016,09,29,13,02,11.80
2016,09,29,13,03,11.80
2016,09,29,13,04,11.80
2016,09,29,13,05,11.90
2016,09,29,13,06,11.90
2016,09,29,13,07,11.80
2016,09,29,13,08,11.80
2016,09,29,13,09,11.80
2016,09,29,13,10,11.80
2016,09,29,13,11,11.70
2016,09,29,13,12,11.60
2016,09,29,13,13,11.60
2016,09,29,13,14,11.60
2016,09,29,13,15,11.60
2016,09,29,13,16,11.70
2016,09,29,13,17,11.70
2016,09,29,13,18,11.70
2016,09,29,13,19,11.70
2016,09,29,13,20,11.70
2016,09,29,13,21,11.80
2016,09,29,13,22,11.80
2016,09,29,13,23,11.70
2016,09,29,13,24,11.70
2016,09,29,13,25,11.70
2016,09,29,13,26,11.70
2016,09,29,13,27,11.70
2016,09,29,13,28,11.70
2016,09,29,13,29,11.80
2016,09,29,13,30,11.80
2016,09,29,13,31,11.90
2016,09,29,13,32,11.90
2016,09,29,13,33,11.80
2016,09,29,13,34,11.80
2016,09,29,13,35,11.80
2016,09,29,13,36,11.80
2016,09,29,13,37,11.80
2016,09,29,13,38,11.70
2016,09,29,13,39,11.70
2016,09,29,13,40,11.80
2016,09,29,13,41,11.80
2016,09,29,13,42,11.90
2016,09,29,13,43,11.90
2016,09,29,13,44,11.90
2016,09,29,13,45,11.90
2016,09,29,13,46,12.00
2016,09,29,13,47,12.00
2016,09,29,13,48,11.90
2016,09,29,13,49,11.90
2016,09,29,13,50,11.90
2016,09,29,13,51,11.90
2016,09,29,13,52,11.90
2016,09,29,13,53,11.90
2016,09,29,13,54,11.90
2016,09,29,13,55,11.90
2016,09,29,13,56,12.00
2016,09,29,13,57,12.00
2016,09,29,13,58,12.10
2016,09,29,13,59,12.00
2016,09,29,14,00,12.00
2016,09,29,14,01,12.10
2016,09,29,14,02,12.20
2016,09,29,14,03,12.30
2016,09,29,14,04,12.30
2016,09,29,14,05,12.30
2016,09,29,14,06,12.30
2016,09,29,14,07,12.30
2016,09,29,14,08,12.30
2016,09,29,14,09,12.30
2016,09,29,14,10,12.40
2016,09,29,14,11,12.40
2016,09,29,14,12,12.40
2016,09,29,14,13,12.30
2016,09,29,14,14,12.20
2016,09,29,14,15,12.10
2016,09,29,14,16,12.00
2016,09,29,14,17,11.90
2016,09,29,14,18,11.90
2016,09,29,14,19,11.90
2016,09,29,14,20,11.90
2016,09,29,14,21,11.90
2016,09,29,14,22,11.90
2016,09,29,14,23,11.80
2016,09,29,14,24,11.90
2016,09,29,14,25,11.90
2016,09,29,14,26,11.80
2016,09,29,14,27,11.80
2016,09,29,14,28,11.80
2016,09,29,14,29,11.70
2016,09,29,14,30,11.70
2016,09,29,14,31,11.60
2016,09,29,14,32,11.70
2016,09,29,14,33,11.80
2016,09,29,14,34,11.80
2016,09,29,14,35,11.80
2016,09,29,14,36,11.80
2016,09,29,14,37,11.80
2016,09,29,14,38,11.80
2016,09,29,14,39,11.80
2016,09,29,14,40,11.70
2016,09,29,14,41,11.70
2016,09,29,14,42,11.80
2016,09,29,14,43,11.80
2016,09,29,14,44,11.90
2016,09,29,14,45,11.90
2016,09,29,14,46,11.90
2016,09,29,14,47,11.90
2016,09,29,14,48,12.00
2016,09,29,14,49,12.00
2016,09,29,14,50,12.00
2016,09,29,14,51,12.00
2016,09,29,14,52,12.00
2016,09,29,14,53,12.10
2016,09,29,14,54,12.20
2016,09,29,14,55,12.30
2016,09,29,14,56,12.30
2016,09,29,14,57,12.30
2016,09,29,14,58,12.30
2016,09,29,14,59,12.30
2016,09,29,15,00,12.30
2016,09,29,15,01,12.30
2016,09,29,15,02,12.20
2016,09,29,15,03,12.20
2016,09,29,15,04,12.10
2016,09,29,15,05,12.00
2016,09,29,15,06,11.90
2016,09,29,15,07,11.90
2016,09,29,15,08,11.90
2016,09,29,15,09,11.90
2016,09,29,15,10,11.90
2016,09,29,15,11,12.00
2016,09,29,15,12,12.00
2016,09,29,15,13,12.00
2016,09,29,15,14,11.90
2016,09,29,15,15,11.90
2016,09,29,15,16,11.80
2016,09,29,15,17,11.80
2016,09,29,15,18,11.80
2016,09,29,15,19,11.80
2016,09,29,15,20,11.80
2016,09,29,15,21,11.90
2016,09,29,15,22,11.90
2016,09,29,15,23,11.90
2016,09,29,15,24,11.90
2016,09,29,15,25,11.90
2016,09,29,15,26,12.00
2016,09,29,15,27,12.00
2016,09,29,15,28,11.90
2016,09,29,15,29,11.80
2016,09,29,15,30,11.80
2016,09,29,15,31,11.80
2016,09,29,15,32,11.80
2016,09,29,15,33,11.80
2016,09,29,15,34,11.80
2016,09,29,15,35,11.80
2016,09,29,15,36,11.80
2016,09,29,15,37,11.70
2016,09,29,15,38,11.70
2016,09,29,15,39,11.60
2016,09,29,15,40,11.60
2016,09,29,15,41,11.60
2016,09,29,15,42,11.60
2016,09,29,15,43,11.60
2016,09,29,15,44,11.60
2016,09,29,15,45,11.60
2016,09,29,15,46,11.60
2016,09,29,15,47,11.60
2016,09,29,15,48,11.50
2016,09,29,15,49,11.40
2016,09,29,15,50,11.40
2016,09,29,15,51,11.40
2016,09,29,15,52,11.40
2016,09,29,15,53,11.40
2016,09,29,15,54,11.40
2016,09,29,15,55,11.40
2016,09,29,15,56,11.40
2016,09,29,15,57,11.40
2016,09,29,15,58,11.40
2016,09,29,15,59,11.50
2016,09,29,16,00,11.60
2016,09,29,16,01,11.60
2016,09,29,16,02,11.60
2016,09,29,16,03,11.70
2016,09,29,16,04,11.80
2016,09,29,16,05,11.70
2016,09,29,16,06,11.70
2016,09,29,16,07,11.70
2016,09,29,16,08,11.70
2016,09,29,16,09,11.70
2016,09,29,16,10,11.70
2016,09,29,16,11,11.70
2016,09,29,16,12,11.80
2016,09,29,16,13,11.70
2016,09,29,16,14,11.60
2016,09,29,16,15,11.60
2016,09,29,16,16,11.70
2016,09,29,16,17,11.70
2016,09,29,16,18,11.80
2016,09,29,16,19,11.80
2016,09,29,16,20,11.80
2016,09,29,16,21,11.80
2016,09,29,16,22,11.80
2016,09,29,16,23,11.80
2016,09,29,16,24,11.70
2016,09,29,16,25,11.60
2016,09,29,16,26,11.60
2016,09,29,16,27,11.60
2016,09,29,16,28,11.60
2016,09,29,16,29,11.60
2016,09,29,16,30,11.70
2016,09,29,16,31,11.70
2016,09,29,16,32,11.60
2016,09,29,16,33,11.60
2016,09,29,16,34,11.60
2016,09,29,16,35,11.70
2016,09,29,16,36,11.70
2016,09,29,16,37,11.70
2016,09,29,16,38,11.70
2016,09,29,16,39,11.60
2016,09,29,16,40,11.60
2016,09,29,16,41,11.60
2016,09,29,16,42,11.60
2016,09,29,16,43,11.60
2016,09,29,16,44,11.60
2016,09,29,16,45,11.60
2016,09,29,16,46,11.50
2016,09,29,16,47,11.40
2016,09,29,16,48,11.40
2016,09,29,16,49,11.40
2016,09,29,16,50,11.40
2016,09,29,16,51,11.40
2016,09,29,16,52,11.40
2016,09,29,16,53,11.40
2016,09,29,16,54,11.40
2016,09,29,16,55,11.40
2016,09,29,16,56,11.50
2016,09,29,16,57,11.60
2016,09,29,16,58,11.60
2016,09,29,16,59,11.60
2016,09,29,17,00,11.60
2016,09,29,17,01,11.60
2016,09,29,17,02,11.60
2016,09,29,17,03,11.70
2016,09,29,17,04,11.80
2016,09,29,17,05,11.80
2016,09,29,17,06,11.80
2016,09,29,17,07,11.80
2016,09,29,17,08,11.80
2016,09,29,17,09,11.80
2016,09,29,17,10,11.80
2016,09,29,17,11,11.80
2016,09,29,17,12,11.70
2016,09,29,17,13,11.60
2016,09,29,17,14,11.60
2016,09,29,17,15,11.60
2016,09,29,17,16,11.60
2016,09,29,17,17,11.70
2016,09,29,17,18,11.70
2016,09,29,17,19,11.70
2016,09,29,17,20,11.70
2016,09,29,17,21,11.70
2016,09,29,17,22,11.70
2016,09,29,17,23,11.70
2016,09,29,17,24,11.70
2016,09,29,17,25,11.70
2016,09,29,17,26,11.60
2016,09,29,17,27,11.60
2016,09,29,17,28,11.60
2016,09,29,17,29,11.60
2016,09,29,17,30,11.60
2016,09,29,17,31,11.60
2016,09,29,17,32,11.60
2016,09,29,17,33,11.60
2016,09,29,17,34,11.60
2016,09,29,17,35,11.60
2016,09,29,17,36,11.60
2016,09,29,17,37,11.60
2016,09,29,17,38,11.60
2016,09,29,17,39,11.50
2016,09,29,17,40,11.40
2016,09,29,17,41,11.50
2016,09,29,17,42,11.50
2016,09,29,17,43,11.60
2016,09,29,17,44,11.60